Zurück zum Katalog

COSMOS 970 DEB

AktivLEO
NORAD 10881·DEBRIS·🇷🇺 Russia

Gestartet Dec 21, 1977 von Baikonur Cosmodrome

Loading…

Nächste Überflüge (nächste 24 Stunden)

TLE

AktuellSource: Space-Track

Epoche: Sep 14, 2026, 10:14 UTC

1 10881U 77121AC  26257.42685162  .00000110  00000-0  20513-3 0  9998
2 10881  65.8432 221.9352 0122572  94.6600 266.8472 13.69576707429524

Verfolge COSMOS 970 DEB in Echtzeit mit AllMySat

Download on the App Store